sat.trackr.live / text

‹ back to catalog

SES-1

NORAD 36516 · 2010-016A

PAYLOAD ACTIVE UNKNOWN

§ Identity

Operator
Country
SES
Launch date
2010-04-24
Launch site
TYMSC
Launch vehicle
Mass (kg)
RCS (m²)
26.98

Purposes: comms

External: N2YO · Heavens-Above · Gunter

§ Orbital elements

Epoch: 2026-09-10T04:49:18.871104Z

Period
1,436.09 min
Inclination
0.0477°
Eccentricity
0.0002489
Mean motion
1.00271986 rev/d
Perigee alt
35,776.0 km
Apogee alt
35,797.0 km
Semi-major
42,164.7 km
B*
0.0000e+0
RAAN
296.3335°
Arg perigee
245.3557°
Mean anomaly
138.8926°
Rev number
5,988

§ Raw data

SES-11 36516U 10016A   26253.20091286 -.00000135  00000+0  00000+0 0  99932 36516   0.0477 296.3335 0002489 245.3557 138.8926  1.00271986 59887

JSON: /api/v1/satellites/36516 · /tle

For live sub-satellite position, see the globe view (requires WebGL).

§ Visibility from observer

Set your observer location to see the next 7 days of passes ≥ 10°. The values pass through the URL so the page stays shareable.

No JS? Fill the form by hand. The geolocation button needs JavaScript.